Flag for Maldives Weather past 2 weeks in Male, Maldives

Now
86 °F

Overcast.


Feels Like: 97 °F
Forecast: 81 / 89 °F
Wind: 1 mph from North

Location: Male Airport

Current Time: Apr 21, 2015 at 4:01:06 PM

Latest Report: Apr 21, 2015 at 3:00 PM


Visibility: 6 mi

Pressure: 29.80 "Hg

Humidity: 75%

Dew point: 77 °F

Location of MaleLocation

Historic Weather in Male — Graph

°F

Male temperature yesterday

Maximum temperature yesterday: 91 °F (at 12:00 PM)
Minimum temperature yesterday: 84 °F (at 12:00 AM)
Average temperature yesterday: 87 °F

Past Weeks' High & Low Weather Summary

 TemperatureHumidityPressure
High91 °F (Apr 10, 12:00 PM)89% (Apr 7, 1:00 PM)29.95 "Hg (Apr 7, 1:00 PM)
Low79 °F (Apr 7, 1:00 PM)59% (Apr 15, 1:00 PM)29.71 "Hg (Apr 7, 3:00 AM)
Average86 °F72%29.84 "Hg
* Reported Apr 6 2:00 PM — Apr 21 2:00 PM, Male, Weather by CustomWeather, © 2015

Note: Actual official high and low records may vary slightly from our data, if they occured in-between our weather recording intervals... More about our weather records

Advertising

Male weather history for previous 24 hours

 ConditionsComfort  
Time TempWeatherWind HumidityBarometerVisibility
2:00 PM
Tue, Apr 21
86 °FOvercast.6 mph75%29.80 "HgN/A
12:00 PM86 °FThunderstorms. Overcast.8 mph70%29.89 "HgN/A
11:00 AM88 °FOvercast.5 mph70%29.92 "HgN/A
10:00 AM88 °FOvercast.2 mph75%29.92 "HgN/A
9:00 AM86 °FOvercast.2 mph75%29.92 "HgN/A
8:00 AM86 °FOvercast.5 mph79%29.89 "HgN/A
7:00 AM86 °FBroken clouds.3 mph75%29.86 "HgN/A
6:00 AM84 °FPartly sunny.3 mph89%29.83 "HgN/A
5:00 AM84 °FPassing clouds.2 mph79%29.83 "HgN/A
4:00 AM84 °FPassing clouds.5 mph79%29.80 "HgN/A
3:00 AM84 °FPassing clouds.6 mph79%29.80 "HgN/A
2:00 AM86 °FPassing clouds.5 mph75%29.83 "HgN/A
1:00 AM86 °FPassing clouds.3 mph75%29.83 "HgN/A
12:00 AM86 °FPassing clouds.3 mph75%29.86 "HgN/A
11:00 PM
Mon, Apr 20
86 °FPassing clouds.3 mph75%29.89 "HgN/A
10:00 PM86 °FPassing clouds.3 mph75%29.89 "HgN/A
9:00 PM86 °FPassing clouds.3 mph75%29.89 "HgN/A
8:00 PM86 °FPassing clouds.3 mph75%29.86 "HgN/A
7:00 PM86 °FPassing clouds.5 mph75%29.83 "HgN/A
6:00 PM86 °FBroken clouds.3 mph75%29.80 "HgN/A
5:00 PM88 °FBroken clouds.5 mph70%29.80 "HgN/A
4:00 PM88 °FPartly sunny.8 mph70%29.77 "HgN/A
Weather by CustomWeather, © 2015

See weather overviewHow to use our weather pages